星链-5702 (STARLINK-5702 )

导读

STARLINK-5702是美国太空探索技术公司(SpaceX)星链计划中的一颗卫星,于2023年2月12日发射升空,属于星链星座组网卫星,主要为全球提供高速互联网接入服务,尤其服务偏远地区和网络基础设施薄弱区域,推动全球互联网覆盖的进一步完善,是SpaceX大规模低轨卫星星座部署中的一环。

Basic Information
目录编号:
55622
目录名称:
STARLINK-5702
国际标识:
2023-020BF
轨道中心:
EARTH
卫星名称:
星链-5702
卫星全名:
星链-5702 (STARLINK-5702 )
卫星状态:
在轨 (已飞行1300 天)
发射日期:
2023-02-12 UTC
国别 :
美国 (US)
星等 :
--
Orbit Information
数据来源 国际轨道数据
星历时间: 2026-09-03T21:41:20+0800
20小时前
查看轨道信息
半长轴: 6861.193km
偏心率: 0.0001718
轨道倾角: 43.006°
近地点辐角 265.340°
升交点赤经 69.670°
平近点角 94.725°
近地点: 481.877km
远地点: 484.235km
周期: 94.267分钟
每日圈数: 15.275778
Detailed Information
固有亮度:
5
最大亮度:
2.5
卫星平台:
Starlink v1.5
覆盖范围:
全球
运营商:
太空探索技术公司
运营商所在国:
美国
制造商(研发单位):
太空探索技术公司
制造商所在国:
美国
使用方式:
暂无
Satellite Introduction
星链(Starlink)计划是由太空探索技术公司(SpaceX)提出的一个巨型低轨卫星互联网星座项目,计划在2019年至2024年间在太空搭建由约1.2万颗卫星组成的“星链”网络,其中1584颗将部署在地球上空550千米处的近地轨道,并从2020年开始工作。该卫星仍在工作。
2D Orbit Map
3D Orbit Map
Orbit Altitude Analysis Chart
Orbit Inclination Analysis Chart
Orbit Comprehensive Analysis Chart
View Comprehensive Chart
Conjunction Data List
Event ID Objects TCA Miss Dist (km) Collision Risk Probability Collision Risk Index (CRI) Action
CDM_260905-180105-316605-562221
2026-09-05T
18:01:47+0000
2.402 km
极远距离
6.219486E-7 极低风险 0.31